Location: Burla
(50.9568°N, 10.4983°E)
Time: 18:18:44
(UTC+00:00)

SJ 16-02 - Pass Details

Date: 18 January 2026
Orbit: 582 x 594 km, 75.0° (Epoch: 18 February)

Event Time Altitude Azimuth Distance (km) Brightness Sun altitude
Rises 05:07:14 0° 167° (SSE) 2,793 5.0 -19.1°
Reaches altitude 10° 05:09:44 10° 153° (SSE) 1,899 4.3 -18.7°
Maximum altitude 05:13:08 24° 100° (E) 1,229 3.8 -18.2°
Drops below altitude 10° 05:16:33 10° 46° (NE) 1,914 4.3 -17.6°
Sets 05:19:05 0° 33° (NNE) 2,821 5.0 -17.2°
